{"data":{"norad_id":61058,"epoch":"2026-05-24T19:56:25.680192Z","epoch_age_seconds":83674,"freshness":"FRESH","line1":"1 61058U 24164J   26144.83085278  .00000478  00000+0  88043-5 0  9991","line2":"2 61058  53.1586 296.2131 0000759 100.8248 259.2856 15.69699730 97376","mean_motion":15.6969973,"eccentricity":7.59e-5,"inclination_deg":53.1586,"raan_deg":296.2131,"arg_perigee_deg":100.8248,"mean_anomaly_deg":259.2856,"bstar":8.8043e-6,"rev_number":9737,"period_min":91.737290417958,"perigee_km":359.24473329959,"apogee_km":360.26754547815,"semimajor_km":6737.8931393889,"source":"CELESTRAK","updated_at":"2026-05-25T13:38:19.354937Z"}}